Home > Time Zones > World Clock > Weather > Italy > Milan > Past weeks

Flag for Italy Weather past 2 weeks in Milan, Italy

Now
81 °F

Sunny.


Feels Like: 79 °F
Forecast: 55 / 76 °F
Wind: 16 mph from North

Location: Milan / Linate

Current Time: Sep 1, 2014 at 5:10:27 PM

Latest Report: Sep 1, 2014 at 4:20 PM


Visibility: 10 mi

Pressure: 29.77 "Hg

Humidity: 24%

Dew point: 41 °F

Location of MilanLocation

Historic Weather in Milan — Graph

°F

Milan temperature yesterday

Maximum temperature yesterday: 81 °F (at 2:50 PM)
Minimum temperature yesterday: 66 °F (at 10:50 PM)
Average temperature yesterday: 73 °F

Past Weeks' High & Low Weather Summary

 TemperatureHumidityPressure
High82 °F (Aug 27, 3:50 PM)100% (Aug 19, 4:50 AM)30.09 "Hg (Aug 19, 4:50 AM)
Low57 °F (Aug 24, 6:50 AM)24% (Sep 1, 1:50 PM)29.71 "Hg (Aug 31, 10:20 PM)
Average70 °F78%29.93 "Hg
* Reported Aug 17 3:20 PM — Sep 1 3:50 PM, Milan, Weather by CustomWeather, © 2014

Note: Actual official high and low records may vary slightly from our data, if they occured in-between our weather recording intervals... More about our weather records

Advertising

Milan weather history for previous 24 hours

 ConditionsComfort  
Time TempWeatherWind HumidityBarometerVisibility
3:50 PM
Sep 1
81 °FPassing clouds.15 mph24%29.77 "HgN/A
3:20 PM81 °FPassing clouds.16 mph26%29.77 "HgN/A
2:50 PM81 °FPassing clouds.15 mph26%29.77 "HgN/A
2:20 PM81 °FPassing clouds.16 mph26%29.77 "HgN/A
1:50 PM81 °FPassing clouds.15 mph24%29.77 "HgN/A
1:20 PM79 °FSunny.17 mph26%29.77 "Hg10 mi
12:50 PM79 °FPassing clouds.7 mph30%29.77 "HgN/A
12:20 PM75 °FPassing clouds.3 mph57%29.77 "HgN/A
11:50 AM73 °FPassing clouds.5 mph61%29.77 "HgN/A
11:20 AM70 °FPassing clouds.7 mph73%29.80 "HgN/A
10:50 AM70 °FPassing clouds.6 mph73%29.80 "HgN/A
10:20 AM68 °FPassing clouds.3 mph78%29.80 "HgN/A
9:50 AM68 °FScattered clouds.2 mph78%29.80 "HgN/A
9:20 AM64 °FScattered clouds.6 mph88%29.80 "HgN/A
8:50 AM63 °FPartly sunny.6 mph100%29.80 "HgN/A
8:20 AM63 °FPartly sunny.6 mph100%29.80 "Hg4 mi
7:50 AM61 °FPartly sunny.7 mph100%29.80 "Hg2 mi
7:20 AM61 °FFog.5 mph100%29.77 "Hg1 mi
6:50 AM61 °FLight fog.7 mph100%29.77 "Hg2 mi
6:20 AM59 °FLight fog.5 mph100%29.74 "Hg2 mi
5:50 AM61 °FLight fog.2 mph100%29.74 "Hg2 mi
5:20 AM63 °FLight fog.2 mph100%29.74 "Hg4 mi
4:50 AM61 °FPassing clouds.3 mph100%29.74 "HgN/A
4:20 AM63 °FPassing clouds.3 mph100%29.74 "HgN/A
3:50 AM63 °FPassing clouds.8 mph100%29.74 "HgN/A
3:20 AM63 °FPassing clouds.2 mph94%29.74 "HgN/A
2:50 AM64 °FPassing clouds.9 mph88%29.74 "HgN/A
2:20 AM64 °FPassing clouds.6 mph88%29.74 "HgN/A
1:50 AM64 °FPassing clouds.5 mph94%29.74 "HgN/A
1:20 AM66 °FPassing clouds.5 mph100%29.71 "HgN/A
12:50 AM66 °FPassing clouds.7 mph100%29.71 "HgN/A
12:20 AM66 °FPassing clouds.6 mph100%29.71 "HgN/A
11:50 PM
Aug 31
66 °FThundershowers. Passing clouds.7 mph100%29.71 "HgN/A
11:20 PM66 °FThunderstorms. Passing clouds.6 mph100%29.71 "HgN/A
10:50 PM66 °FThunderstorms. Passing clouds.7 mph100%29.71 "Hg2 mi
10:20 PM72 °FThunderstorms. Passing clouds.6 mph83%29.71 "HgN/A
9:50 PM73 °FPassing clouds.7 mph78%29.74 "HgN/A
9:20 PM75 °FPassing clouds.6 mph69%29.74 "HgN/A
8:50 PM75 °FThundershowers. Partly sunny.2 mph69%29.74 "HgN/A
8:20 PM75 °FThundershowers. Partly sunny.2 mph69%29.74 "HgN/A
7:20 PM77 °FScattered clouds.2 mph61%29.77 "HgN/A
6:50 PM77 °FPassing clouds.2 mph61%29.77 "HgN/A
6:20 PM79 °FPassing clouds.3 mph58%29.80 "HgN/A
5:50 PM79 °FPassing clouds.5 mph54%29.80 "HgN/A
5:20 PM81 °FPassing clouds.6 mph51%29.80 "HgN/A
Weather by CustomWeather, © 2014

See weather overviewHow to use our weather pages